Time,TemperatureF,DewpointF,PressureIn,WindDirection,WindDirectionDegrees,WindSpeedMPH,WindSpeedGustMPH,Humidity,HourlyPrecipIn,Conditions,Clouds,dailyrainin,SolarRadiationWatts/m^2,SoftwareType,DateUTC
2013-08-22 00:00:00,67.0,60.3,30.06,West,270,0.0,1.0,79,0.00,,,0.00,0000,Weather View 32 v70,2013-08-22 04:00:00,
2013-08-22 00:05:00,67.0,60.3,30.06,West,270,0.0,1.0,79,0.00,,,0.00,0000,Weather View 32 v70,2013-08-22 04:05:00,
2013-08-22 00:10:00,66.9,60.5,30.06,West,270,0.0,1.0,80,0.00,,,0.00,0000,Weather View 32 v70,2013-08-22 04:10:00,
2013-08-22 00:15:00,66.8,60.0,30.06,West,270,0.0,0.0,79,0.00,,,0.00,0000,Weather View 32 v70,2013-08-22 04:15:00,
2013-08-22 00:20:00,66.7,59.9,30.06,West,270,0.0,0.0,79,0.00,,,0.00,0000,Weather View 32 v70,2013-08-22 04:20:00,
2013-08-22 00:25:00,66.7,60.3,30.06,West,270,0.0,0.0,80,0.00,,,0.00,0008,Weather View 32 v70,2013-08-22 04:25:00,
2013-08-22 00:30:00,66.7,60.3,30.06,WNW,293,0.0,0.0,80,0.00,,,0.00,0000,Weather View 32 v70,2013-08-22 04:30:00,
2013-08-22 00:35:00,66.6,60.2,30.06,WNW,293,0.0,0.0,80,0.00,,,0.00,0000,Weather View 32 v70,2013-08-22 04:35:00,
2013-08-22 00:40:00,66.6,60.2,30.06,WNW,293,0.0,0.0,80,0.00,,,0.00,0000,Weather View 32 v70,2013-08-22 04:40:00,
2013-08-22 00:45:00,66.5,60.1,30.06,WNW,293,0.0,0.0,80,0.00,,,0.00,0016,Weather View 32 v70,2013-08-22 04:45:00,
2013-08-22 00:55:00,66.5,60.1,30.06,WNW,293,0.0,0.0,80,0.00,,,0.00,0000,Weather View 32 v70,2013-08-22 04:55:00,
2013-08-22 01:05:00,66.5,60.4,30.06,WNW,293,0.0,0.0,81,0.00,,,0.00,0000,Weather View 32 v70,2013-08-22 05:05:00,
2013-08-22 01:15:00,66.3,60.3,30.05,WNW,293,0.0,0.0,81,0.00,,,0.00,0000,Weather View 32 v70,2013-08-22 05:15:00,
2013-08-22 01:20:00,66.3,60.3,30.05,WNW,293,0.0,0.0,81,0.00,,,0.00,0000,Weather View 32 v70,2013-08-22 05:20:00,
2013-08-22 01:30:00,66.3,60.3,30.05,WNW,293,0.0,0.0,81,0.00,,,0.00,0000,Weather View 32 v70,2013-08-22 05:30:00,
2013-08-22 01:35:00,66.2,60.2,30.05,WNW,293,0.0,0.0,81,0.00,,,0.00,0000,Weather View 32 v70,2013-08-22 05:35:00,
2013-08-22 01:40:00,66.2,60.2,30.06,WNW,293,0.0,0.0,81,0.00,,,0.00,0000,Weather View 32 v70,2013-08-22 05:40:00,
2013-08-22 01:45:00,66.3,60.3,30.06,WNW,293,0.0,0.0,81,0.00,,,0.00,0000,Weather View 32 v70,2013-08-22 05:45:00,
2013-08-22 01:55:00,66.5,60.8,30.06,WNW,293,0.0,0.0,82,0.00,,,0.00,0000,Weather View 32 v70,2013-08-22 05:55:00,
2013-08-22 02:00:00,66.3,60.7,30.06,WNW,293,0.0,0.0,82,0.00,,,0.00,0000,Weather View 32 v70,2013-08-22 06:00:00,
2013-08-22 02:05:00,66.3,60.3,30.06,WNW,293,0.0,0.0,81,0.00,,,0.00,0000,Weather View 32 v70,2013-08-22 06:05:00,
2013-08-22 02:15:00,66.2,60.2,30.06,WNW,293,0.0,0.0,81,0.00,,,0.00,0000,Weather View 32 v70,2013-08-22 06:15:00,
2013-08-22 02:25:00,66.2,60.2,30.06,WNW,293,0.0,0.0,81,0.00,,,0.00,0000,Weather View 32 v70,2013-08-22 06:25:00,
2013-08-22 02:35:00,66.1,60.1,30.06,WNW,293,0.0,0.0,81,0.00,,,0.00,0000,Weather View 32 v70,2013-08-22 06:35:00,
2013-08-22 02:45:00,66.0,60.0,30.06,WNW,293,0.0,0.0,81,0.00,,,0.00,0000,Weather View 32 v70,2013-08-22 06:45:00,
2013-08-22 02:50:00,66.0,60.0,30.06,WNW,293,0.0,0.0,81,0.00,,,0.00,0000,Weather View 32 v70,2013-08-22 06:50:00,
2013-08-22 02:57:00,65.8,59.8,30.06,WNW,293,0.0,0.0,81,0.00,,,0.00,0000,Weather View 32 v70,2013-08-22 06:57:00,
2013-08-22 03:05:00,65.4,59.4,30.06,WNW,293,0.0,0.0,81,0.00,,,0.00,0000,Weather View 32 v70,2013-08-22 07:05:00,
2013-08-22 03:10:00,65.1,58.8,30.06,WNW,293,0.0,0.0,80,0.00,,,0.00,0000,Weather View 32 v70,2013-08-22 07:10:00,
2013-08-22 03:15:00,65.0,59.0,30.06,WNW,293,0.0,0.0,81,0.00,,,0.00,0000,Weather View 32 v70,2013-08-22 07:15:00,
2013-08-22 03:20:00,64.9,58.9,30.06,WNW,293,0.0,0.0,81,0.00,,,0.00,0000,Weather View 32 v70,2013-08-22 07:20:00,
2013-08-22 03:25:00,64.9,58.9,30.06,WNW,293,0.0,0.0,81,0.00,,,0.00,0000,Weather View 32 v70,2013-08-22 07:25:00,
2013-08-22 03:35:00,64.9,59.2,30.06,WNW,293,0.0,0.0,82,0.00,,,0.00,0000,Weather View 32 v70,2013-08-22 07:35:00,
2013-08-22 03:40:00,64.8,59.1,30.06,WNW,293,0.0,0.0,82,0.00,,,0.00,0008,Weather View 32 v70,2013-08-22 07:40:00,
2013-08-22 03:45:00,64.5,58.6,30.06,WNW,293,0.0,0.0,81,0.00,,,0.00,0000,Weather View 32 v70,2013-08-22 07:45:00,
2013-08-22 03:55:00,64.3,58.3,30.05,WNW,293,0.0,0.0,81,0.00,,,0.00,0000,Weather View 32 v70,2013-08-22 07:55:00,
2013-08-22 04:05:00,64.4,58.8,30.05,WNW,293,0.0,0.0,82,0.00,,,0.00,0000,Weather View 32 v70,2013-08-22 08:05:00,
2013-08-22 04:10:00,64.4,58.8,30.05,WNW,293,0.0,0.0,82,0.00,,,0.00,0000,Weather View 32 v70,2013-08-22 08:10:00,
2013-08-22 04:20:00,64.2,58.2,30.05,WNW,293,0.0,0.0,81,0.00,,,0.00,0000,Weather View 32 v70,2013-08-22 08:20:00,
2013-08-22 04:25:00,64.2,58.2,30.05,WNW,293,0.0,0.0,81,0.00,,,0.00,0000,Weather View 32 v70,2013-08-22 08:25:00,
2013-08-22 04:35:00,64.4,58.4,30.05,WNW,293,0.0,0.0,81,0.00,,,0.00,0000,Weather View 32 v70,2013-08-22 08:35:00,
2013-08-22 04:40:00,64.5,58.6,30.04,WNW,293,0.0,0.0,81,0.00,,,0.00,0008,Weather View 32 v70,2013-08-22 08:40:00,
2013-08-22 04:45:00,64.7,58.7,30.05,WNW,293,0.0,0.0,81,0.00,,,0.00,0000,Weather View 32 v70,2013-08-22 08:45:00,
2013-08-22 04:55:00,64.7,58.3,30.04,WNW,293,0.0,0.0,80,0.00,,,0.00,0000,Weather View 32 v70,2013-08-22 08:55:00,
2013-08-22 05:00:00,64.7,58.3,30.04,WNW,293,0.0,0.0,80,0.00,,,0.00,0008,Weather View 32 v70,2013-08-22 09:00:00,
2013-08-22 05:10:00,64.8,58.4,30.04,WNW,293,0.0,0.0,80,0.00,,,0.00,0000,Weather View 32 v70,2013-08-22 09:10:00,
2013-08-22 05:15:00,64.9,58.5,30.03,WNW,293,0.0,0.0,80,0.00,,,0.00,0000,Weather View 32 v70,2013-08-22 09:15:00,
2013-08-22 05:25:00,65.2,59.6,30.03,WNW,293,0.0,0.0,82,0.00,,,0.00,0000,Weather View 32 v70,2013-08-22 09:25:00,
2013-08-22 05:30:00,65.3,59.7,30.03,WNW,293,0.0,0.0,82,0.00,,,0.00,0000,Weather View 32 v70,2013-08-22 09:30:00,
2013-08-22 05:40:00,65.6,59.5,30.03,WNW,293,0.0,0.0,81,0.00,,,0.00,0008,Weather View 32 v70,2013-08-22 09:40:00,
2013-08-22 05:50:00,65.7,59.7,30.03,WNW,293,0.0,0.0,81,0.00,,,0.00,0008,Weather View 32 v70,2013-08-22 09:50:00,
2013-08-22 05:55:00,65.8,59.4,30.03,WNW,293,0.0,0.0,80,0.00,,,0.00,0000,Weather View 32 v70,2013-08-22 09:55:00,
2013-08-22 06:00:00,65.9,59.5,30.03,WNW,293,0.0,0.0,80,0.00,,,0.00,0000,Weather View 32 v70,2013-08-22 10:00:00,
2013-08-22 06:10:00,66.0,60.0,30.03,WNW,293,0.0,0.0,81,0.00,,,0.00,0016,Weather View 32 v70,2013-08-22 10:10:00,
2013-08-22 06:15:00,66.1,60.4,30.03,WNW,293,0.0,0.0,82,0.00,,,0.00,0016,Weather View 32 v70,2013-08-22 10:15:00,
2013-08-22 06:20:00,66.2,60.5,30.03,WNW,293,0.0,0.0,82,0.00,,,0.00,0008,Weather View 32 v70,2013-08-22 10:20:00,
2013-08-22 06:25:00,66.3,61.0,30.03,WSW,248,0.0,0.0,83,0.00,,,0.00,0024,Weather View 32 v70,2013-08-22 10:25:00,
2013-08-22 06:30:00,66.6,61.2,30.03,West,270,0.0,0.0,83,0.00,,,0.00,0024,Weather View 32 v70,2013-08-22 10:30:00,
2013-08-22 06:40:00,66.7,61.7,30.03,WNW,293,0.0,0.0,84,0.00,,,0.00,0016,Weather View 32 v70,2013-08-22 10:40:00,
2013-08-22 06:45:00,66.8,61.8,30.03,WNW,293,0.0,0.0,84,0.00,,,0.00,0048,Weather View 32 v70,2013-08-22 10:45:00,
2013-08-22 08:30:00,70.6,65.9,30.03,West,270,0.0,5.0,85,0.00,,,0.00,0152,Weather View 32 v70,2013-08-22 12:30:00,
2013-08-22 08:40:00,71.0,65.9,30.02,WNW,293,0.0,5.0,84,0.00,,,0.00,0144,Weather View 32 v70,2013-08-22 12:40:00,
2013-08-22 08:50:00,71.3,66.2,30.02,WNW,293,0.0,5.0,84,0.00,,,0.00,0232,Weather View 32 v70,2013-08-22 12:50:00,
2013-08-22 09:00:00,72.1,66.9,30.02,East,90,0.0,5.0,84,0.00,,,0.00,0184,Weather View 32 v70,2013-08-22 13:00:00,
2013-08-22 09:05:00,72.2,66.7,30.02,NW,315,0.0,5.0,83,0.00,,,0.00,0248,Weather View 32 v70,2013-08-22 13:05:00,
2013-08-22 09:15:00,72.9,67.4,30.02,NW,315,0.0,5.0,83,0.00,,,0.00,0256,Weather View 32 v70,2013-08-22 13:15:00,
2013-08-22 09:20:00,73.7,67.8,30.02,West,270,0.0,5.0,82,0.00,,,0.00,0392,Weather View 32 v70,2013-08-22 13:20:00,
2013-08-22 09:25:00,74.1,67.9,30.02,SW,225,0.0,5.0,81,0.00,,,0.00,0264,Weather View 32 v70,2013-08-22 13:25:00,
2013-08-22 09:30:00,74.6,68.3,30.02,WNW,293,0.0,5.0,81,0.00,,,0.00,0304,Weather View 32 v70,2013-08-22 13:30:00,
2013-08-22 09:40:00,75.3,68.3,30.01,WNW,293,0.0,4.0,79,0.00,,,0.00,0272,Weather View 32 v70,2013-08-22 13:40:00,
2013-08-22 09:50:00,75.6,68.2,30.01,WNW,293,0.0,6.0,78,0.00,,,0.00,0688,Weather View 32 v70,2013-08-22 13:50:00,
2013-08-22 09:55:00,77.1,69.7,30.01,North,0,0.0,6.0,78,0.00,,,0.00,0736,Weather View 32 v70,2013-08-22 13:55:00,
2013-08-22 10:00:00,77.9,69.3,30.01,SSW,203,0.0,6.0,75,0.00,,,0.00,0416,Weather View 32 v70,2013-08-22 14:00:00,
2013-08-22 10:10:00,77.5,68.5,30.01,WNW,293,0.0,6.0,74,0.00,,,0.00,0288,Weather View 32 v70,2013-08-22 14:10:00,
2013-08-22 10:15:00,77.5,68.5,30.01,WNW,293,0.0,6.0,74,0.00,,,0.00,0304,Weather View 32 v70,2013-08-22 14:15:00,
2013-08-22 10:25:00,78.3,68.9,30.01,West,270,0.0,6.0,73,0.00,,,0.00,0344,Weather View 32 v70,2013-08-22 14:25:00,
2013-08-22 10:30:00,78.4,68.6,30.01,SW,225,0.0,6.0,72,0.00,,,0.00,0240,Weather View 32 v70,2013-08-22 14:30:00,
2013-08-22 10:40:00,77.8,67.2,30.01,SSE,158,1.0,7.0,70,0.00,,,0.00,0360,Weather View 32 v70,2013-08-22 14:40:00,
2013-08-22 10:45:00,77.5,67.7,30.01,West,270,0.0,10.0,72,0.00,,,0.00,0328,Weather View 32 v70,2013-08-22 14:45:00,
2013-08-22 10:55:00,77.7,67.9,30.01,NW,315,0.0,10.0,72,0.00,,,0.00,0296,Weather View 32 v70,2013-08-22 14:55:00,
2013-08-22 11:00:00,77.7,68.3,30.01,NW,315,0.0,10.0,73,0.00,,,0.00,0368,Weather View 32 v70,2013-08-22 15:00:00,
2013-08-22 11:05:00,77.6,67.8,30.01,NW,315,0.0,10.0,72,0.00,,,0.00,0384,Weather View 32 v70,2013-08-22 15:05:00,
2013-08-22 11:10:00,77.9,68.1,30.00,NW,315,2.0,10.0,72,0.00,,,0.00,0440,Weather View 32 v70,2013-08-22 15:10:00,
2013-08-22 11:15:00,78.3,68.5,30.00,WSW,248,0.0,10.0,72,0.00,,,0.00,0320,Weather View 32 v70,2013-08-22 15:15:00,
2013-08-22 11:25:00,78.4,68.1,30.00,SSW,203,3.0,11.0,71,0.00,,,0.00,0408,Weather View 32 v70,2013-08-22 15:25:00,
2013-08-22 11:30:00,78.0,68.2,30.00,WSW,248,1.0,11.0,72,0.00,,,0.00,0312,Weather View 32 v70,2013-08-22 15:30:00,
2013-08-22 11:35:00,77.9,67.7,30.01,West,270,0.0,11.0,71,0.00,,,0.00,0232,Weather View 32 v70,2013-08-22 15:35:00,
2013-08-22 11:40:00,77.9,68.1,30.00,WNW,293,0.0,11.0,72,0.00,,,0.00,0312,Weather View 32 v70,2013-08-22 15:40:00,
2013-08-22 11:45:00,78.0,67.8,30.00,West,270,0.0,11.0,71,0.00,,,0.00,0288,Weather View 32 v70,2013-08-22 15:45:00,
2013-08-22 11:50:00,77.8,67.6,30.01,WSW,248,0.0,11.0,71,0.00,,,0.00,0200,Weather View 32 v70,2013-08-22 15:50:00,
2013-08-22 11:55:00,77.6,67.4,30.00,WSW,248,0.0,11.0,71,0.00,,,0.00,0176,Weather View 32 v70,2013-08-22 15:55:00,
2013-08-22 12:00:00,77.1,67.4,30.01,West,270,0.0,11.0,72,0.00,,,0.00,0184,Weather View 32 v70,2013-08-22 16:00:00,
2013-08-22 12:05:00,76.8,67.5,30.00,West,270,2.0,11.0,73,0.00,,,0.00,0088,Weather View 32 v70,2013-08-22 16:05:00,
2013-08-22 12:15:00,76.0,66.3,30.00,SSW,203,2.0,11.0,72,0.00,,,0.00,0136,Weather View 32 v70,2013-08-22 16:15:00,
2013-08-22 12:25:00,75.2,65.9,30.00,West,270,0.0,13.0,73,0.00,,,0.00,0136,Weather View 32 v70,2013-08-22 16:25:00,
2013-08-22 12:30:00,75.0,65.7,30.01,WNW,293,1.0,13.0,73,0.00,,,0.00,0120,Weather View 32 v70,2013-08-22 16:30:00,
2013-08-22 12:35:00,74.7,65.8,30.01,West,270,0.0,13.0,74,0.00,,,0.00,0104,Weather View 32 v70,2013-08-22 16:35:00,
2013-08-22 12:45:00,74.2,65.4,30.01,WSW,248,6.0,13.0,74,0.00,,,0.00,0064,Weather View 32 v70,2013-08-22 16:45:00,
2013-08-22 12:50:00,73.9,65.4,30.01,SW,225,2.0,13.0,75,0.00,,,0.00,0064,Weather View 32 v70,2013-08-22 16:50:00,
2013-08-22 12:55:00,73.5,65.1,30.00,NW,315,0.0,13.0,75,0.00,,,0.00,0056,Weather View 32 v70,2013-08-22 16:55:00,
2013-08-22 13:00:00,73.0,64.5,30.00,West,270,0.0,13.0,75,0.00,,,0.00,0056,Weather View 32 v70,2013-08-22 17:00:00,
2013-08-22 13:10:00,72.2,64.9,30.00,West,270,0.0,13.0,78,0.00,,,0.00,0072,Weather View 32 v70,2013-08-22 17:10:00,
2013-08-22 13:15:00,72.1,64.8,30.00,WSW,248,0.0,13.0,78,0.00,,,0.00,0048,Weather View 32 v70,2013-08-22 17:15:00,
2013-08-22 13:20:00,71.9,64.6,30.00,WNW,293,0.0,13.0,78,0.00,,,0.00,0072,Weather View 32 v70,2013-08-22 17:20:00,
2013-08-22 13:25:00,71.6,64.4,29.99,WNW,293,0.0,12.0,78,0.01,,,0.01,0064,Weather View 32 v70,2013-08-22 17:25:00,
2013-08-22 13:30:00,71.2,64.3,29.99,West,270,0.0,12.0,79,0.02,,,0.02,0072,Weather View 32 v70,2013-08-22 17:30:00,
2013-08-22 13:40:00,71.0,64.4,29.99,West,270,0.0,12.0,80,0.04,,,0.04,0080,Weather View 32 v70,2013-08-22 17:40:00,
2013-08-22 13:45:00,70.8,64.7,29.98,West,270,0.0,12.0,81,0.04,,,0.04,0096,Weather View 32 v70,2013-08-22 17:45:00,
2013-08-22 13:55:00,70.7,64.6,29.98,WNW,293,0.0,8.0,81,0.05,,,0.05,0136,Weather View 32 v70,2013-08-22 17:55:00,
2013-08-22 14:00:00,70.8,64.7,29.98,WNW,293,0.0,8.0,81,0.05,,,0.05,0144,Weather View 32 v70,2013-08-22 18:00:00,
2013-08-22 14:10:00,71.1,64.9,29.97,WNW,293,0.0,6.0,81,0.05,,,0.05,0168,Weather View 32 v70,2013-08-22 18:10:00,
2013-08-22 14:20:00,71.2,65.4,29.97,NW,315,0.0,5.0,82,0.05,,,0.05,0192,Weather View 32 v70,2013-08-22 18:20:00,
2013-08-22 14:25:00,71.2,65.4,29.97,WNW,293,0.0,5.0,82,0.04,,,0.05,0296,Weather View 32 v70,2013-08-22 18:25:00,
2013-08-22 14:30:00,71.5,65.7,29.96,WNW,293,0.0,4.0,82,0.03,,,0.05,0344,Weather View 32 v70,2013-08-22 18:30:00,
2013-08-22 14:40:00,72.1,65.9,29.96,WNW,293,0.0,2.0,81,0.01,,,0.05,0368,Weather View 32 v70,2013-08-22 18:40:00,
2013-08-22 14:45:00,73.0,67.1,29.96,WNW,293,0.0,2.0,82,0.01,,,0.05,0424,Weather View 32 v70,2013-08-22 18:45:00,
2013-08-22 14:50:00,72.9,66.3,29.96,WNW,293,0.0,3.0,80,0.00,,,0.05,0312,Weather View 32 v70,2013-08-22 18:50:00,
2013-08-22 15:00:00,73.4,66.5,29.96,NW,315,0.0,4.0,79,0.00,,,0.05,0320,Weather View 32 v70,2013-08-22 19:00:00,
2013-08-22 15:05:00,73.3,66.0,29.95,West,270,0.0,6.0,78,0.00,,,0.05,0232,Weather View 32 v70,2013-08-22 19:05:00,
2013-08-22 15:10:00,73.2,66.3,29.95,NW,315,0.0,6.0,79,0.00,,,0.05,0224,Weather View 32 v70,2013-08-22 19:10:00,
2013-08-22 15:15:00,73.3,66.4,29.95,West,270,0.0,6.0,79,0.00,,,0.05,0240,Weather View 32 v70,2013-08-22 19:15:00,
2013-08-22 15:25:00,73.1,66.2,29.95,WNW,293,0.0,6.0,79,0.00,,,0.05,0160,Weather View 32 v70,2013-08-22 19:25:00,
2013-08-22 15:30:00,73.1,66.2,29.95,WNW,293,0.0,6.0,79,0.00,,,0.05,0128,Weather View 32 v70,2013-08-22 19:30:00,
2013-08-22 15:35:00,73.1,66.2,29.95,WSW,248,0.0,6.0,79,0.00,,,0.05,0144,Weather View 32 v70,2013-08-22 19:35:00,
2013-08-22 15:45:00,73.1,66.2,29.94,WSW,248,0.0,6.0,79,0.00,,,0.05,0136,Weather View 32 v70,2013-08-22 19:45:00,
2013-08-22 15:50:00,73.0,66.0,29.94,WNW,293,0.0,6.0,79,0.00,,,0.05,0176,Weather View 32 v70,2013-08-22 19:50:00,
2013-08-22 16:00:00,72.6,65.4,29.94,NW,315,0.0,6.0,78,0.00,,,0.05,0136,Weather View 32 v70,2013-08-22 20:00:00,
2013-08-22 16:05:00,72.6,65.4,29.93,SW,225,0.0,5.0,78,0.00,,,0.05,0136,Weather View 32 v70,2013-08-22 20:05:00,
2013-08-22 16:15:00,72.5,65.6,29.92,NNW,338,0.0,5.0,79,0.00,,,0.05,0136,Weather View 32 v70,2013-08-22 20:15:00,
2013-08-22 16:20:00,72.4,65.5,29.92,SW,225,0.0,5.0,79,0.00,,,0.05,0152,Weather View 32 v70,2013-08-22 20:20:00,
2013-08-22 16:25:00,72.4,65.5,29.92,WNW,293,0.0,3.0,79,0.00,,,0.05,0128,Weather View 32 v70,2013-08-22 20:25:00,
2013-08-22 16:30:00,72.3,65.4,29.91,SW,225,1.0,5.0,79,0.00,,,0.05,0136,Weather View 32 v70,2013-08-22 20:30:00,
2013-08-22 16:40:00,72.1,65.2,29.91,West,270,0.0,8.0,79,0.00,,,0.05,0144,Weather View 32 v70,2013-08-22 20:40:00,
2013-08-22 16:45:00,72.1,65.5,29.91,NW,315,0.0,8.0,80,0.00,,,0.05,0136,Weather View 32 v70,2013-08-22 20:45:00,
2013-08-22 16:55:00,72.5,66.0,29.90,SW,225,0.0,8.0,80,0.00,,,0.05,0328,Weather View 32 v70,2013-08-22 20:55:00,
2013-08-22 17:00:00,73.0,66.8,29.90,SSE,158,0.0,8.0,81,0.00,,,0.05,0272,Weather View 32 v70,2013-08-22 21:00:00,
2013-08-22 17:05:00,73.3,67.1,29.90,WSW,248,0.0,8.0,81,0.00,,,0.05,0224,Weather View 32 v70,2013-08-22 21:05:00,
2013-08-22 17:15:00,73.4,66.8,29.90,SW,225,0.0,8.0,80,0.00,,,0.05,0208,Weather View 32 v70,2013-08-22 21:15:00,
2013-08-22 17:20:00,73.5,67.0,29.89,West,270,0.0,8.0,80,0.00,,,0.05,0200,Weather View 32 v70,2013-08-22 21:20:00,
2013-08-22 17:25:00,73.4,66.5,29.89,NW,315,0.0,8.0,79,0.00,,,0.05,0192,Weather View 32 v70,2013-08-22 21:25:00,
2013-08-22 17:35:00,73.4,66.8,29.89,SW,225,4.0,8.0,80,0.00,,,0.05,0064,Weather View 32 v70,2013-08-22 21:35:00,
2013-08-22 17:40:00,73.3,66.8,29.89,West,270,0.0,7.0,80,0.00,,,0.05,0064,Weather View 32 v70,2013-08-22 21:40:00,
2013-08-22 17:50:00,73.3,66.4,29.89,SSW,203,0.0,7.0,79,0.00,,,0.05,0088,Weather View 32 v70,2013-08-22 21:50:00,
2013-08-22 17:55:00,73.3,66.8,29.89,WNW,293,0.0,7.0,80,0.00,,,0.05,0096,Weather View 32 v70,2013-08-22 21:55:00,
2013-08-22 18:00:00,73.2,66.6,29.89,WNW,293,0.0,7.0,80,0.00,,,0.05,0088,Weather View 32 v70,2013-08-22 22:00:00,
2013-08-22 18:05:00,73.2,66.6,29.89,SW,225,0.0,8.0,80,0.00,,,0.05,0064,Weather View 32 v70,2013-08-22 22:05:00,
2013-08-22 18:15:00,73.0,66.4,29.89,WNW,293,0.0,8.0,80,0.00,,,0.05,0016,Weather View 32 v70,2013-08-22 22:15:00,
2013-08-22 18:25:00,72.5,66.0,29.89,WNW,293,0.0,8.0,80,0.00,,,0.05,0016,Weather View 32 v70,2013-08-22 22:25:00,
2013-08-22 18:30:00,72.4,65.9,29.89,WNW,293,0.0,8.0,80,0.00,,,0.05,0016,Weather View 32 v70,2013-08-22 22:30:00,
2013-08-22 18:35:00,72.2,66.0,29.89,WNW,293,0.0,8.0,81,0.00,,,0.05,0016,Weather View 32 v70,2013-08-22 22:35:00,
2013-08-22 18:40:00,72.0,65.8,29.90,WNW,293,0.0,8.0,81,0.00,,,0.05,0032,Weather View 32 v70,2013-08-22 22:40:00,
2013-08-22 18:50:00,71.7,65.6,29.89,WNW,293,0.0,8.0,81,0.00,,,0.05,0016,Weather View 32 v70,2013-08-22 22:50:00,
2013-08-22 19:00:00,71.7,65.6,29.90,NW,315,0.0,8.0,81,0.00,,,0.05,0024,Weather View 32 v70,2013-08-22 23:00:00,
2013-08-22 19:05:00,71.6,65.8,29.90,WSW,248,0.0,8.0,82,0.00,,,0.05,0008,Weather View 32 v70,2013-08-22 23:05:00,
2013-08-22 19:15:00,71.5,65.7,29.90,NNW,338,0.0,8.0,82,0.00,,,0.05,0008,Weather View 32 v70,2013-08-22 23:15:00,
2013-08-22 19:25:00,71.4,65.9,29.90,WNW,293,0.0,8.0,83,0.00,,,0.05,0000,Weather View 32 v70,2013-08-22 23:25:00,
2013-08-22 19:30:00,71.3,65.5,29.90,WNW,293,0.0,6.0,82,0.00,,,0.05,0000,Weather View 32 v70,2013-08-22 23:30:00,
2013-08-22 19:35:00,71.3,65.5,29.89,WNW,293,0.0,6.0,82,0.00,,,0.05,0000,Weather View 32 v70,2013-08-22 23:35:00,
2013-08-22 19:40:00,71.2,65.4,29.89,NW,315,0.0,6.0,82,0.00,,,0.05,0008,Weather View 32 v70,2013-08-22 23:40:00,
2013-08-22 19:45:00,71.1,65.3,29.89,WSW,248,1.0,6.0,82,0.00,,,0.05,0000,Weather View 32 v70,2013-08-22 23:45:00,
2013-08-22 19:50:00,71.1,65.3,29.89,WSW,248,2.0,6.0,82,0.00,,,0.05,0000,Weather View 32 v70,2013-08-22 23:50:00,
2013-08-22 19:55:00,70.7,65.3,29.89,NW,315,0.0,6.0,83,0.00,,,0.05,0008,Weather View 32 v70,2013-08-22 23:55:00,
2013-08-22 20:00:00,70.7,65.3,29.89,WNW,293,0.0,6.0,83,0.00,,,0.05,0000,Weather View 32 v70,2013-08-23 00:00:00,
2013-08-22 20:06:00,70.6,65.2,29.89,West,270,0.0,6.0,83,0.00,,,0.05,0000,Weather View 32 v70,2013-08-23 00:06:00,
2013-08-22 20:15:00,70.4,65.0,29.89,WSW,248,0.0,6.0,83,0.00,,,0.05,0000,Weather View 32 v70,2013-08-23 00:15:00,
2013-08-22 20:20:00,70.4,65.0,29.89,NW,315,0.0,6.0,83,0.00,,,0.05,0008,Weather View 32 v70,2013-08-23 00:20:00,
2013-08-22 20:25:00,70.4,65.0,29.89,WNW,293,0.0,6.0,83,0.00,,,0.05,0000,Weather View 32 v70,2013-08-23 00:25:00,
2013-08-22 20:30:00,70.3,64.8,29.89,WNW,293,1.0,4.0,83,0.00,,,0.05,0000,Weather View 32 v70,2013-08-23 00:30:00,
2013-08-22 20:40:00,70.3,65.2,29.89,West,270,0.0,4.0,84,0.00,,,0.05,0008,Weather View 32 v70,2013-08-23 00:40:00,
2013-08-22 20:45:00,70.4,65.3,29.89,NNW,338,0.0,4.0,84,0.00,,,0.05,0000,Weather View 32 v70,2013-08-23 00:45:00,
2013-08-22 20:50:00,70.4,65.3,29.89,West,270,0.0,4.0,84,0.00,,,0.05,0000,Weather View 32 v70,2013-08-23 00:50:00,
2013-08-22 20:55:00,70.4,65.3,29.89,NW,315,0.0,4.0,84,0.00,,,0.05,0000,Weather View 32 v70,2013-08-23 00:55:00,
2013-08-22 21:00:00,70.4,65.3,29.89,NW,315,0.0,4.0,84,0.00,,,0.05,0000,Weather View 32 v70,2013-08-23 01:00:00,
2013-08-22 21:07:00,70.5,65.4,29.88,SSE,158,0.0,4.0,84,0.00,,,0.05,0000,Weather View 32 v70,2013-08-23 01:07:00,
2013-08-22 21:15:00,70.4,65.3,29.89,WNW,293,0.0,4.0,84,0.00,,,0.05,0000,Weather View 32 v70,2013-08-23 01:15:00,
2013-08-22 21:20:00,70.4,65.3,29.89,NW,315,0.0,6.0,84,0.00,,,0.05,0000,Weather View 32 v70,2013-08-23 01:20:00,
2013-08-22 21:25:00,70.4,65.3,29.89,NNW,338,0.0,6.0,84,0.00,,,0.05,0000,Weather View 32 v70,2013-08-23 01:25:00,
2013-08-22 21:30:00,70.4,65.0,29.89,WNW,293,0.0,6.0,83,0.00,,,0.05,0000,Weather View 32 v70,2013-08-23 01:30:00,
2013-08-22 21:35:00,70.3,64.8,29.89,SW,225,0.0,6.0,83,0.00,,,0.05,0000,Weather View 32 v70,2013-08-23 01:35:00,
2013-08-22 21:45:00,70.2,64.7,29.89,WNW,293,0.0,6.0,83,0.00,,,0.05,0000,Weather View 32 v70,2013-08-23 01:45:00,
2013-08-22 21:50:00,70.2,64.7,29.89,WNW,293,0.0,6.0,83,0.00,,,0.05,0000,Weather View 32 v70,2013-08-23 01:50:00,
2013-08-22 21:55:00,70.2,64.7,29.89,NNW,338,0.0,6.0,83,0.00,,,0.05,0000,Weather View 32 v70,2013-08-23 01:55:00,
2013-08-22 22:00:00,70.1,64.6,29.89,WNW,293,0.0,6.0,83,0.00,,,0.05,0008,Weather View 32 v70,2013-08-23 02:00:00,
2013-08-22 22:05:00,69.9,64.5,29.89,WNW,293,0.0,6.0,83,0.00,,,0.05,0008,Weather View 32 v70,2013-08-23 02:05:00,
2013-08-22 22:15:00,69.9,64.5,29.89,WNW,293,0.0,6.0,83,0.00,,,0.05,0000,Weather View 32 v70,2013-08-23 02:15:00,
2013-08-22 22:25:00,69.6,64.2,29.89,NW,315,0.0,3.0,83,0.00,,,0.05,0000,Weather View 32 v70,2013-08-23 02:25:00,
2013-08-22 22:30:00,69.4,64.0,29.89,WNW,293,0.0,3.0,83,0.00,,,0.05,0000,Weather View 32 v70,2013-08-23 02:30:00,
2013-08-22 22:35:00,69.3,63.9,29.88,WNW,293,0.0,3.0,83,0.00,,,0.05,0000,Weather View 32 v70,2013-08-23 02:35:00,
2013-08-22 22:40:00,69.0,63.6,29.88,NW,315,0.0,3.0,83,0.00,,,0.05,0008,Weather View 32 v70,2013-08-23 02:40:00,
2013-08-22 22:45:00,68.9,63.5,29.88,NW,315,0.0,3.0,83,0.00,,,0.05,0000,Weather View 32 v70,2013-08-23 02:45:00,
2013-08-22 22:50:00,68.7,63.3,29.88,NW,315,0.0,3.0,83,0.00,,,0.05,0000,Weather View 32 v70,2013-08-23 02:50:00,
2013-08-22 22:55:00,68.6,63.2,29.88,WNW,293,0.0,3.0,83,0.00,,,0.05,0000,Weather View 32 v70,2013-08-23 02:55:00,
2013-08-22 23:05:00,68.5,63.1,29.88,West,270,0.0,2.0,83,0.00,,,0.05,0008,Weather View 32 v70,2013-08-23 03:05:00,
2013-08-22 23:10:00,68.4,63.0,29.88,WNW,293,0.0,2.0,83,0.00,,,0.05,0008,Weather View 32 v70,2013-08-23 03:10:00,
2013-08-22 23:15:00,68.1,62.8,29.88,NW,315,0.0,2.0,83,0.00,,,0.05,0008,Weather View 32 v70,2013-08-23 03:15:00,
2013-08-22 23:20:00,68.0,62.6,29.88,WNW,293,0.0,1.0,83,0.00,,,0.05,0008,Weather View 32 v70,2013-08-23 03:20:00,
2013-08-22 23:25:00,67.9,62.5,29.88,NW,315,0.0,1.0,83,0.00,,,0.05,0000,Weather View 32 v70,2013-08-23 03:25:00,
2013-08-22 23:30:00,67.8,62.4,29.87,NW,315,0.0,1.0,83,0.00,,,0.05,0000,Weather View 32 v70,2013-08-23 03:30:00,
2013-08-22 23:40:00,67.7,62.3,29.87,WNW,293,0.0,0.0,83,0.00,,,0.05,0016,Weather View 32 v70,2013-08-23 03:40:00,
2013-08-22 23:45:00,67.6,62.2,29.87,WNW,293,0.0,0.0,83,0.00,,,0.05,0000,Weather View 32 v70,2013-08-23 03:45:00,
2013-08-22 23:55:00,67.4,62.0,29.86,WNW,293,0.0,0.0,83,0.00,,,0.05,0000,Weather View 32 v70,2013-08-23 03:55:00,